Regional Weather Roundup
Issued by NWS

Home | Current Version | Previous Version | Text Only | Print | Product List | Glossary On
Versions: 1 2 3 4 5 6 7 8 9 10 11 12 13 14 15 16 17 18 19 20 21 22 23 24 25 26 27 28 29 30 31 32 33 34 35 36 37 38 39 40 41 42 43 44 45 46 47 48 49 50
000
ASUS45 KABQ 250210
RWRNM
NEW MEXICO REGIONAL WEATHER ROUNDUP
NATIONAL WEATHER SERVICE ALBUQUERQUE NM
700 PM MST TUE JAN 24 2017

NOTE: "FAIR" MEANS FEW OR NO CLOUDS BELOW 12,000 FEET AGL WITH NO
       SIGNIFICANT WEATHER OR OBSTRUCTIONS TO VISION.

      THIS PRODUCT IS RELEASED AS TWO VERSIONS.  ONE VERSION NEAR
      THE TOP OF THE HOUR CONTAINING PRELIMINARY DATA FROM ALBUQUERQUE
      AND OTHER STATIONS.  A FINAL VERSION WITH ADDITIONAL DATA IS
      ISSUED ABOUT 10 MINUTES AFTER THE HOUR.

NMZ501-503-504-510>518-250300-
NORTHWEST PLATEAU/NORTHCENTRAL MOUNTAINS

CITY           SKY/WX    TMP DP  RH WIND       PRES   REMARKS
FARMINGTON     MOCLDY    28  24  85 W8        29.82R WCI  20
LOS ALAMOS     FAIR      26  13  59 SE5       29.77R WCI  20
SANTA FE       FAIR      28  17  63 W16       29.78R WCI  16
TAOS           MOCLDY    21  10  63 S9        29.78R WCI  11
ANGEL FIRE     FAIR      18  11  74 W20G29    29.71R HAZE    WCI   1

$$
NMZ402-403-502-505>509-250300-
WESTCENTRAL MOUNTAINS/SOUTHWEST MOUNTAINS

CITY           SKY/WX    TMP DP  RH WIND       PRES   REMARKS
GALLUP         FAIR      25  19  78 SW15      29.87R WCI  13
GRANTS         MOCLDY    27  19  71 N7        29.87R WCI  19
SILVER CITY    FAIR      32  24  71 NW15      29.91R WCI  22

$$
NMZ407-409-411-412-250300-
SOUTHERN DESERTS

CITY           SKY/WX    TMP DP  RH WIND       PRES   REMARKS
DEMING         CLOUDY    42  21  43 NW10      29.92R
LAS CRUCES     FAIR      41  19  42 W7        29.92R
HOLLOMAN AFB   FAIR      41  18  38 CALM      29.93R
ALAMOGORDO     FAIR      37  18  44 S5        29.91R WCI  34
T OR C         FAIR      38  17  42 SW13      29.90R WCI  30

$$
NMZ519>523-250300-
CENTRAL VALLEYS/CENTRAL HIGHLANDS

CITY           SKY/WX    TMP DP  RH WIND       PRES   REMARKS
ALBUQUERQUE    FAIR      34  16  47 W12G20    29.85R WCI  25
DOUBLE EAGLE   PTCLDY    30  16  55 W18       29.85R WCI  18
MORIARTY ARPT  FAIR      29  11  47 W9        29.84R WCI  20
CLINES CORNERS FAIR      25  10  53 W22G33    29.80R WCI  10
BELEN          FAIR      34  14  43 W16G23    29.87R WCI  24
SOCORRO        FAIR      38  15  38 W14G20    29.87R WCI  30

$$
NMZ524>526-539-540-250300-
SOUTHCENTRAL MOUNTAINS

CITY           SKY/WX    TMP DP  RH WIND       PRES   REMARKS
RUIDOSO        FAIR      32   5  32 W17G23    29.84R WCI  21

$$
NMZ527>531-250300-
NORTHEAST HIGHLANDS/NORTHEAST PLAINS

CITY           SKY/WX    TMP DP  RH WIND       PRES   REMARKS
LAS VEGAS      FAIR      27  10  49 W23G30    29.73S WCI  12
RATON          FAIR      26  15  63 S8        29.67R WCI  18
CLAYTON        MOCLDY    28  28 100 CALM      29.71R

$$
NMZ532>537-250300-
EASTCENTRAL PLAINS

CITY           SKY/WX    TMP DP  RH WIND       PRES   REMARKS
TUCUMCARI      FAIR      41  16  36 W20G28    29.75R
CANNON AFB     FAIR      41  10  27 NW12      29.76R
CLOVIS AIRPORT FAIR      39  10  30 NW15      29.76R WCI  31

$$
NMZ028-029-538-250300-
SOUTHEAST PLAINS

CITY           SKY/WX    TMP DP  RH WIND       PRES   REMARKS
ROSWELL        FAIR      47  13  25 W15       29.80R
ARTESIA        FAIR      45  12  26 W17       29.82R
CARLSBAD       FAIR      51  17  26 W18       29.80R


$$




USA.gov is the U.S. government's official web portal to all federal, state and local government web resources and services.